sat.trackr.live / text

‹ back to catalog

SDA_1683

NORAD 65993 · 2025-230V

PAYLOAD ACTIVE UNKNOWN

§ Identity

Operator
Country
US
Launch date
2025-10-15
Launch site
AFWTR
Launch vehicle
Mass (kg)
RCS (m²)

External: N2YO · Heavens-Above · Gunter

§ Orbital elements

Epoch: 2026-05-24T22:33:13.616352Z

Period
104.41 min
Inclination
81.3021°
Eccentricity
0.0001246
Mean motion
13.79141718 rev/d
Perigee alt
966.0 km
Apogee alt
967.8 km
Semi-major
7,345.1 km
B*
1.4405e-4
RAAN
233.7510°
Arg perigee
114.5009°
Mean anomaly
245.6275°
Rev number
3,056

§ Raw data

SDA_16831 65993U 25230V   26144.93974093  .00000159  00000+0  14405-3 0  99962 65993  81.3021 233.7510 0001246 114.5009 245.6275 13.79141718 30560

JSON: /api/v1/satellites/65993 · /tle

For live sub-satellite position, see the globe view (requires WebGL).

§ Visibility from observer

Set your observer location to see the next 7 days of passes ≥ 10°. The values pass through the URL so the page stays shareable.

No JS? Fill the form by hand. The geolocation button needs JavaScript.